DW2843 Weather Reports


time (UTC)temp
C
wind
direction
speed
KPH
gust
KPH
rain 1hr
cm
rain 24hr
cm
rain mn
cm
humidity
%
barometer
mb
20260506102004 10 20 6.4 19.3 0.00 0.03 0.03 88 1012.7
20260506095004 10 345 1.6 11.3 0.03 0.03 0.03 91 1012.7
20260506093004 10 14 4.8 16.1 0.03 0.03 0.03 91 1012.7
20260506092004 10 24 6.4 24.1 0.03 0.03 0.03 89 1012.7
20260506091005 10 23 6.4 19.3 0.00 0.00 0.00 88 1012.6
20260506085004 10 6 4.8 16.1 0.00 0.00 0.00 89 1012.4
20260506084005 10 347 4.8 24.1 0.00 0.00 0.00 91 1012.5
20260506082004 9 343 4.8 16.1 0.00 0.00 0.00 91 1012.5
20260506081005 8 358 1.6 9.7 0.00 0.00 0.00 91 1012.4
20260506073007 8 25 4.8 14.5 0.00 0.00 0.00 93 1012.5
20260506072005 8 3 4.8 9.7 0.00 0.00 0.00 94 1012.4
20260506071004 7 10 1.6 14.5 0.00 0.00 0.00 94 1012.3
20260506061004 6 296 4.8 14.5 0.00 0.00 0.00 95 1012.1
20260506051004 4 301 4.8 11.3 0.00 0.00 0.00 93 1011.9
20260506045005 3 299 4.8 6.4 0.00 0.00 0.00 92 1012.0
20260506044005 4 299 1.6 6.4 0.00 0.00 0.00 92 1011.9
20260506043004 4 299 1.6 6.4 0.00 0.00 0.00 92 1012.0
20260506041006 5 302 1.6 6.4 0.00 0.00 0.00 92 1012.0
20260506040005 5 298 1.6 6.4 0.00 0.00 0.00 92 1012.0
20260506035005 5 297 4.8 6.4 0.00 0.00 0.00 92 1012.0
20260506034006 5 0 0.0 4.8 0.00 0.00 0.00 92 1012.0
20260506033006 5 0 0.0 6.4 0.00 0.00 0.00 92 1012.2
20260506031005 6 0 0.0 4.8 0.00 0.00 0.00 91 1012.2
20260506030004 6 0 0.0 6.4 0.00 0.00 0.00 92 1012.4
20260506025005 6 0 0.0 4.8 0.00 0.00 0.00 91 1012.5
20260506024005 6 0 0.0 6.4 0.00 0.00 0.00 91 1012.5
20260506023004 6 0 0.0 6.4 0.00 0.00 0.00 91 1012.5
20260506022004 6 0 0.0 4.8 0.00 0.00 0.00 90 1012.6
20260506021004 6 0 0.0 4.8 0.00 0.00 0.00 90 1012.7
20260506020004 6 0 0.0 4.8 0.00 0.00 0.00 89 1012.7
20260506015006 6 0 0.0 4.8 0.00 0.00 0.00 89 1012.7
20260506014004 6 0 0.0 6.4 0.00 0.00 0.00 88 1012.6
20260506013006 7 0 0.0 6.4 0.00 0.00 0.00 88 1012.7
20260506012005 7 0 0.0 6.4 0.00 0.00 0.00 88 1012.7
20260506011004 7 0 0.0 6.4 0.00 0.00 0.00 88 1012.8
20260506010005 7 0 0.0 9.7 0.00 0.00 0.00 87 1012.8
20260506005005 8 8 1.6 14.5 0.00 0.00 0.00 87 1012.8
20260506004004 8 14 1.6 9.7 0.00 0.00 0.00 87 1012.9
20260506003005 8 0 0.0 6.4 0.00 0.00 0.00 86 1012.9
20260506002004 8 12 4.8 11.3 0.00 0.00 0.00 87 1012.9
20260506001005 8 21 4.8 14.5 0.00 0.00 0.00 87 1012.9
20260506000005 8 18 4.8 16.1 0.00 0.00 0.00 88 1012.9
20260505235006 8 17 4.8 9.7 0.00 0.00 0.00 88 1013.0
20260505234004 8 19 4.8 16.1 0.00 0.00 0.00 88 1013.1
20260505232004 8 15 4.8 14.5 0.00 0.00 0.00 88 1013.2
20260505231004 9 24 6.4 16.1 0.00 0.00 0.00 89 1013.3
20260505230005 9 23 4.8 20.9 0.00 0.00 0.00 89 1013.4
20260505225005 9 32 6.4 24.1 0.00 0.00 0.00 89 1013.4
20260505223006 9 19 1.6 9.7 0.00 0.00 0.00 89 1013.4
20260505222004 9 17 4.8 14.5 0.00 0.00 0.00 89 1013.4
20260505220005 9 26 1.6 9.7 0.00 0.00 0.00 89 1013.4
20260505215004 9 27 1.6 11.3 0.00 0.00 0.00 88 1013.3
20260505214004 9 25 4.8 20.9 0.00 0.00 0.00 88 1013.3
20260505213005 9 28 4.8 11.3 0.00 0.00 0.00 88 1013.4
20260505211005 9 40 4.8 11.3 0.00 0.00 0.00 87 1013.4
20260505210004 9 28 4.8 14.5 0.00 0.00 0.00 87 1013.4
20260505205005 9 18 4.8 6.4 0.00 0.00 0.00 86 1013.3
20260505204006 9 23 4.8 9.7 0.00 0.00 0.00 85 1013.4
20260505203005 9 30 4.8 9.7 0.00 0.00 0.00 85 1013.3
20260505202005 10 33 4.8 14.5 0.00 0.00 0.00 85 1013.3
20260505201004 10 36 4.8 11.3 0.00 0.00 0.00 85 1013.3
20260505200004 10 34 4.8 14.5 0.00 0.00 0.00 84 1013.1
20260505195005 10 21 4.8 16.1 0.00 0.00 0.00 83 1012.9
20260505194004 10 30 6.4 11.3 0.00 0.00 0.00 82 1012.8
20260505193005 10 22 6.4 20.9 0.00 0.00 0.00 81 1012.7
20260505192005 11 28 4.8 14.5 0.00 0.00 0.00 80 1012.6
20260505191005 11 47 4.8 14.5 0.00 0.00 0.00 79 1012.6
20260505190005 11 26 6.4 16.1 0.00 0.00 0.00 78 1012.5
20260505185004 11 36 4.8 19.3 0.00 0.00 0.00 78 1012.4
20260505184005 11 47 6.4 20.9 0.00 0.00 0.00 78 1012.4
20260505183005 12 53 4.8 20.9 0.00 0.00 0.00 78 1012.3
20260505181005 12 51 6.4 24.1 0.00 0.00 0.00 78 1012.3
20260505180005 12 45 6.4 19.3 0.00 0.00 0.00 78 1012.3
20260505175004 12 38 6.4 24.1 0.00 0.00 0.00 77 1012.2
20260505174004 12 35 6.4 24.1 0.00 0.00 0.00 77 1012.1
20260505173004 12 53 6.4 24.1 0.00 0.00 0.00 76 1012.1
20260505171005 12 55 6.4 19.3 0.00 0.00 0.00 76 1012.1
20260505170005 12 58 6.4 20.9 0.00 0.00 0.00 76 1012.1
20260505165006 12 44 4.8 19.3 0.00 0.00 0.00 76 1012.1
20260505164004 13 40 6.4 24.1 0.00 0.00 0.00 76 1012.1
20260505163007 13 47 6.4 24.1 0.00 0.00 0.00 75 1012.1
20260505162004 13 50 6.4 25.7 0.00 0.00 0.00 74 1011.9
20260505161004 14 55 6.4 20.9 0.00 0.00 0.00 72 1011.9
20260505153004 15 66 1.6 11.3 0.00 0.00 0.00 70 1011.9
20260505151004 15 77 1.6 11.3 0.00 0.00 0.00 69 1012.1
20260505125006 17 76 1.6 6.4 0.00 0.00 0.00 56 1012.0
20260505124005 18 63 1.6 11.3 0.00 0.00 0.00 55 1011.9
20260505123004 18 103 1.6 6.4 0.00 0.00 0.00 55 1012.1
20260505121004 17 52 6.4 11.3 0.00 0.00 0.00 55 1012.3
20260505120004 18 87 4.8 14.5 0.00 0.00 0.00 53 1012.3
20260505115005 18 197 4.8 6.4 0.00 0.00 0.00 53 1012.2
20260505114005 17 44 4.8 11.3 0.00 0.00 0.00 55 1012.3
20260505113005 17 44 4.8 11.3 0.00 0.00 0.00 53 1012.4
20260505112004 17 52 1.6 11.3 0.00 0.00 0.00 56 1012.5
20260505111005 17 44 4.8 14.5 0.00 0.00 0.00 55 1012.4